Погода в Нюрбурге

Германия     50°20′33″N   6°57′08″E
темп.,
°C
ветер,
м/с
пор.,
м/с
влажн.,
%
обл.,
%
осадки,
мм/ч
давл.,
гПа
погр.,
м
23 октября, сб
сб2323:00+6з3991100 0.1 1023621
02:00+5з2396100 0.4 102593
05:00+6зюз1294100 0.2 102560
08:00+3з11965 0.2 102710
11:00+8зюз12775 0.0 1028373
14:00+11ссз125677 0.0 10281308
17:00+10в1264100 0.0 102792
20:00+4вюв11845 0.0 102910
24 октября, вс
вс2423:00+3юв11874 0.0 102911
02:00+2юв11900 0.0 102812
05:00+2вюв11923 0.0 102813
08:00+1вюв23930 0.0 102750
11:00+7юв48660 0.0 1026354
14:00+11ююв46510 0.0 1024529
17:00+11ю26600 0.0 1022384
20:00+5ююз22870 0.0 102317
25 октября, пн
пн2523:00+4ююз22920 0.0 102330
02:00+3ююз23940 0.0 102350
05:00+2ююз25950 0.0 1023103
08:00+2ююз25947 0.0 102290
11:00+8юз386977 0.0 1022277
14:00+11юз485585 0.0 1021465
17:00+10юз386590 0.0 1020512
20:00+8юз31076100 0.0 1021341
26 октября, вт
вт2623:00+8юз2986100 0.1 1021294
02:00+5юз2297100 0.1 102250
05:00+7юз3995100 0.2 1022320
08:00+6юз249749 0.4 1022108
11:00+9зюз358961 0.0 1023388
14:00+10зюз348070 0.0 1023569
17:00+10зюз3577100 0.0 1023677
20:00+9зюз237756 0.0 102572
27 октября, ср
ср2723:00+5зюз2293100 0.0 102620
02:00+5юз2294100 0.0 102633
05:00+5юз2293100 0.0 102525
08:00+5юз11945 0.0 102612
11:00+10ю23755 0.0 1026285
14:00+13ю22615 0.0 1025687
17:00+12ю12695 0.0 102483
20:00+6ююв118926 0.0 102510